Wetbulb
42.31 41.78 42.16 41.73 42.25 43.34 43.56 42.71 42.45 42.78 44.70 46.10 45.60 45.19 46.32 46.85 47.01 44.98 44.39 46.55 41.25 36.40 36.43 38.37 39.13 36.66 37.44 36.88 32.20 34.48 32.53 34.18 30.76 24.85 26.10 27.29 26.20 28.38 27.42 29.90 28.18 26.49 24.91 25.17 26.30 22.12 19.14 36.21 35.57 29.69 35.35 38.68 38.78 38.86
41.52 41.72 41.59 41.67 42.21 43.19 43.43 42.70 41.74 42.71 44.24 44.30 44.22 44.41 45.02 46.13 46.73 46.21 42.09 46.83 46.69 38.32 37.03 41.26 41.40 42.29 41.10 40.18 37.35 37.33 33.62 33.39 33.94 29.29 30.51 30.69 27.15 29.48 27.06 22.28 33.18 25.70 30.71 28.06 28.37 27.91 36.32 38.16 37.28 39.98 40.21 39.07 39.57 39.20
41.01 40.67 41.21 41.10 41.14 41.49 41.68 41.74 42.23 43.51 44.15 43.90 43.66 44.95 45.33 45.73 46.38 45.25 42.73 44.78 41.92 35.85 35.78 36.27 35.74 41.04 43.25 43.16 44.55 34.66 36.55 37.65 35.95 38.30 34.53 30.93 25.63 30.00 24.61 25.74 28.88 32.76 35.79 30.46 30.92 33.91 35.67 38.23 39.24 40.61 40.78 40.21 40.73 41.30
41.59 41.48 41.16 41.23 41.40 42.14 42.16 42.39 43.54 44.10 44.10 43.48 43.41 44.22 44.84 44.84 45.52 45.20 42.08 44.60 42.34 38.58 31.18 34.16 42.55 39.95 44.25 44.17 42.76 42.32 39.57 40.86 39.32 37.93 34.36 30.49 26.84 32.41 27.63 29.65 28.89 32.20 33.30 30.94 31.19 34.33 35.86 37.66 38.15 37.71 40.33 40.78 40.97 41.41
41.19 41.47 41.64 41.73 41.27 41.35 41.27 41.42 42.05 43.00 43.09 42.50 42.22 42.00 42.20 43.23 43.70 43.77 43.78 44.04 43.98 37.56 31.25 33.13 38.46 40.19 41.95 41.91 40.12 40.98 39.91 38.28 36.42 33.36 31.40 28.50 31.81 30.96 31.61 30.80 27.91 32.86 30.92 28.74 28.54 35.59 36.06 36.45 39.32 41.13 39.98 39.97 40.56 39.82
39.94 40.00 40.29 40.74 41.09 41.49 41.60 41.64 41.51 41.75 41.80 41.69 41.58 41.76 41.92 42.66 43.88 41.24 33.38 41.99 43.99 42.91 34.06 28.17 38.40 37.59 40.16 40.15 38.77 38.42 38.63 38.06 37.00 33.22 31.24 32.26 34.05 31.34 26.55 25.32 32.55 35.19 36.47 37.99 35.98 39.20 39.87 40.12 40.76 41.51 40.92 40.57 40.65 39.73
38.96 38.97 39.03 38.97 39.25 39.73 40.16 40.67 40.87 41.17 41.46 41.34 40.86 41.14 41.66 42.43 41.63 37.67 35.24 38.52 44.07 41.50 33.91 29.01 30.48 37.04 38.75 37.99 37.95 38.40 38.31 36.70 35.80 33.43 31.49 30.92 31.63 32.94 28.93 24.66 31.80 34.47 36.28 37.15 39.18 39.49 38.03 39.62 38.80 41.89 41.19 40.90 41.14 40.50
39.17 39.04 38.79 38.53 38.21 38.68 38.86 39.27 39.55 39.73 40.18 40.55 40.70 41.12 41.12 41.62 41.06 37.86 41.53 40.78 43.50 38.11 36.62 27.98 28.53 32.61 37.37 32.53 31.08 35.90 33.36 34.30 33.96 32.10 31.97 30.01 32.50 31.52 25.68 30.52 33.77 36.02 37.42 37.74 38.05 39.76 40.14 41.26 41.25 40.58 41.00 40.46 38.70 38.03
38.48 38.57 39.11 39.06 38.74 38.34 38.56 38.59 39.07 38.87 39.06 39.45 39.81 39.99 41.12 38.87 36.12 37.70 43.67 42.92 43.00 38.15 30.63 29.89 25.66 25.78 36.29 33.98 34.80 32.26 33.33 27.14 33.47 28.71 28.11 30.21 27.46 25.63 29.84 32.20 34.23 36.98 37.31 37.23 38.91 39.79 40.16 39.97 39.43 39.06 39.22 38.41 36.49 36.07
37.54 37.67 37.95 38.07 38.16 39.10 38.40 37.83 37.55 37.70 39.01 39.49 39.11 36.40 31.79 37.93 42.47 42.00 38.25 34.09 32.94 32.75 33.44 28.28 32.92 28.09 33.91 33.46 32.85 31.87 31.81 27.79 25.90 29.00 32.84 28.29 26.21 32.93 35.03 36.96 37.92 38.61 38.87 39.79 37.59 37.44 38.65 37.72 37.98 37.80 37.55 37.33 36.05 35.01
37.23 36.85 36.83 37.41 37.55 38.86 38.73 38.32 37.80 37.87 37.50 37.12 34.31 33.23 40.10 41.72 38.57 35.49 30.05 28.06 30.07 26.84 30.74 30.18 30.46 27.88 35.38 29.60 29.69 33.99 30.11 30.38 25.37 28.65 28.34 27.35 26.53 32.83 37.84 37.81 39.14 40.82 41.39 41.51 40.88 40.95 40.55 39.27 38.15 37.04 36.55 36.35 35.62 35.55
36.47 36.43 36.37 36.61 37.21 38.76 38.75 38.84 37.97 37.38 37.56 37.09 37.57 39.23 38.93 34.56 31.50 26.91 26.08 28.60 27.54 25.70 31.63 29.45 30.71 32.89 33.02 35.29 30.55 31.25 26.99 28.62 22.03 33.07 28.30 24.77 31.37 36.42 37.96 39.33 40.05 41.00 41.39 41.21 41.41 39.94 39.40 37.93 37.11 35.96 35.53 35.21 35.56 35.89
35.97 35.74 35.67 36.04 37.18 37.69 38.61 38.96 37.70 38.46 37.81 38.55 34.13 30.86 29.67 28.82 22.59 22.66 19.57 23.39 25.00 30.77 33.22 33.27 31.58 34.04 34.84 34.64 30.83 28.86 24.50 24.08 32.31 27.94 24.48 28.87 35.44 37.43 38.90 39.53 39.67 41.05 40.77 40.17 39.23 39.09 38.19 36.94 36.98 36.16 35.61 36.07 35.67 34.34
35.55 35.46 36.14 36.58 37.11 37.07 38.40 38.49 37.61 37.79 36.45 30.49 26.45 21.07 23.35 22.40 23.98 25.32 26.18 28.27 32.33 32.60 33.47 33.41 32.08 31.29 32.96 29.32 29.01 23.87 27.55 28.84 23.00 21.59 24.29 32.86 36.08 37.40 38.67 39.04 38.77 38.29 38.82 38.36 37.94 37.65 36.95 36.12 35.91 36.79 32.43 33.14 31.90 32.35
35.35 35.22 35.32 36.12 36.57 37.13 37.90 38.13 37.58 38.31 33.63 27.46 27.64 21.02 22.80 27.95 30.63 31.80 32.62 32.32 33.79 35.62 33.96 32.50 32.17 32.21 29.79 27.01 28.38 26.76 23.86 21.68 24.63 24.90 31.28 34.63 35.24 36.08 36.16 37.64 37.38 34.36 32.84 35.80 36.34 32.22 30.87 30.61 31.52 31.38 31.82 32.47 32.46 31.41
35.64 34.81 36.29 36.48 36.58 36.57 36.13 36.72 37.24 36.22 32.44 28.67 27.54 24.62 28.22 27.27 28.89 31.06 30.94 31.03 35.14 34.18 34.17 33.01 28.00 26.00 25.52 27.02 25.13 24.06 22.76 21.48 26.42 30.98 33.68 34.03 34.95 35.93 36.24 36.65 36.90 37.54 36.49 35.90 35.82 33.20 32.22 31.31 30.42 31.22 31.35 31.26 30.59 30.91
34.45 34.96 35.81 36.11 35.82 35.56 35.25 34.65 34.48 30.21 27.73 25.91 25.33 29.72 29.36 28.53 28.61 30.51 31.64 31.55 35.21 31.46 27.03 27.58 23.08 22.61 28.22 24.15 23.34 27.72 25.33 27.40 29.50 30.55 31.91 32.59 33.82 35.01 36.41 36.75 35.60 36.31 35.60 35.03 35.60 33.49 32.22 31.67 30.94 29.67 29.29 32.12 32.22 32.90
34.26 35.63 35.39 34.97 34.62 35.63 34.97 33.61 29.59 26.98 23.12 26.34 24.85 28.36 29.89 31.20 30.12 30.83 32.29 33.74 31.26 30.14 28.83 25.10 28.41 22.41 21.62 20.10 22.79 29.04 30.15 31.49 33.09 31.95 32.57 32.55 32.98 33.99 34.29 34.05 35.21 35.79 35.92 34.30 33.74 32.40 31.64 30.67 30.40 31.70 32.70 33.82 32.81 31.87
34.70 35.19 34.47 33.70 34.39 32.94 29.00 29.33 30.62 23.02 24.56 27.20 28.96 30.43 30.51 30.69 32.72 33.11 32.87 33.30 33.36 32.97 29.87 27.11 22.87 21.68 23.32 27.73 27.85 29.22 30.78 30.80 29.63 31.31 32.26 33.47 33.59 33.30 33.40 34.09 34.46 34.79 35.23 33.67 34.02 33.80 34.08 34.17 33.54 33.12 32.77 32.34 30.92 31.41
33.95 33.64 33.73 33.45 33.37 29.85 24.64 26.29 32.32 25.93 23.18 26.67 28.79 27.80 28.72 29.12 31.08 31.86 31.89 31.87 30.65 29.13 25.47 23.12 24.09 27.07 27.94 29.86 31.53 30.57 31.04 32.08 31.16 29.42 30.38 33.03 34.27 33.55 33.51 34.12 34.64 35.19 35.19 35.74 34.45 32.56 32.20 31.95 33.01 32.54 32.28 31.20 29.04 28.78
33.78 34.81 34.88 34.49 31.79 30.05 26.60 25.68 25.50 26.94 26.88 25.08 27.97 27.43 26.18 29.01 28.09 28.81 28.73 31.02 27.35 25.73 24.52 28.03 28.60 30.77 32.05 32.26 32.78 32.83 31.54 31.65 30.50 30.90 30.28 30.11 33.18 33.72 33.07 33.59 34.54 34.80 33.83 34.13 34.18 33.41 31.30 31.57 32.20 31.82 31.85 30.99 30.34 29.68
33.67 33.39 33.06 32.92 27.84 27.38 25.82 28.59 25.56 27.56 25.58 25.16 25.64 26.47 23.77 23.69 24.93 26.43 29.25 25.50 25.25 27.56 29.17 29.05 29.98 30.39 30.25 29.93 31.03 30.53 30.61 30.57 30.41 30.04 29.64 31.51 31.15 31.75 31.99 33.22 33.21 32.74 33.37 34.43 33.76 32.78 32.78 31.77 30.54 30.12 28.84 28.42 27.19 26.93
32.93 32.12 30.16 28.43 23.01 22.48 20.94 28.94 22.45 23.81 19.16 20.90 23.65 20.37 20.96 22.29 25.40 29.17 23.35 25.71 27.60 31.11 30.84 30.92 30.66 31.30 30.21 30.63 30.88 30.91 30.93 30.47 29.93 29.90 30.77 32.09 32.97 33.19 32.99 33.19 33.94 33.06 32.60 33.49 33.44 31.66 29.90 27.01 27.71 26.78 26.42 25.64 25.53 25.84
31.69 27.40 22.70 21.56 22.14 18.36 24.38 20.78 23.83 21.84 22.03 19.74 18.95 16.84 19.46 21.91 25.94 22.62 19.56 23.97 28.07 30.51 29.40 29.26 29.94 28.70 29.86 29.35 28.79 29.42 30.06 31.98 31.50 31.87 32.68 31.90 31.07 31.64 33.11 32.93 32.02 31.34 30.87 30.63 29.84 28.89 27.91 26.98 25.03 24.73 24.73 23.89 23.77 22.96
22.82 20.34 21.39 16.82 22.47 19.40 17.17 17.71 18.51 18.75 16.02 18.04 16.76 16.93 19.37 23.84 18.75 18.08 18.42 23.03 26.68 27.69 28.82 29.60 29.44 28.36 25.95 27.24 28.93 29.80 30.64 31.36 30.44 30.00 32.55 33.35 32.61 32.46 31.04 30.32 29.87 29.81 29.05 27.13 26.82 26.13 26.14 25.72 24.39 23.34 22.52 21.89 20.48 20.03
16.60 20.04 17.90 18.25 18.69 17.35 17.56 15.12 16.31 16.43 17.92 16.42 17.34 20.74 22.48 18.85 15.27 14.11 19.50 25.18 27.11 28.55 30.08 29.39 27.29 26.12 26.22 28.09 27.33 28.18 29.58 30.66 29.60 28.03 30.24 31.94 32.14 31.22 30.04 28.42 27.10 27.06 28.01 26.98 25.94 24.41 23.82 23.14 22.00 20.54 20.04 19.75 17.03 19.15
15.70 16.75 21.63 25.78 23.31 22.35 20.00 21.39 21.85 18.99 16.15 14.79 17.75 17.77 17.22 12.27 12.85 19.27 26.24 28.49 27.80 30.38 30.11 29.42 28.93 27.48 26.99 27.95 29.10 30.38 29.39 28.18 27.33 27.49 30.12 30.31 29.49 29.47 29.08 27.99 27.41 26.51 26.84 25.07 23.93 22.33 21.11 20.30 19.58 19.09 18.92 19.38 20.28 20.11
20.48 21.54 16.72 20.31 21.02 22.76 17.66 18.07 17.23 15.78 17.69 21.31 19.93 14.70 13.37 14.11 15.81 24.76 27.39 30.39 31.29 31.03 30.29 30.60 30.47 29.67 29.65 29.39 29.65 28.41 28.21 27.16 26.18 26.72 27.53 27.11 27.24 26.81 26.00 24.90 20.60 21.42 23.59 21.52 21.72 20.54 19.70 18.96 18.14 17.45 17.06 17.03 16.93 18.77
19.45 22.86 22.40 16.85 19.21 19.63 18.77 17.73 18.28 21.66 24.11 21.70 17.12 16.49 18.38 24.00 27.00 27.44 28.91 30.09 31.69 30.44 28.63 28.48 30.13 32.06 30.66 29.72 28.78 27.81 28.20 27.26 24.38 22.52 22.09 22.97 24.37 23.82 25.63 24.86 23.30 23.15 22.82 21.36 14.77 15.86 17.49 16.45 15.60 15.23 15.50 16.24 18.06 20.24
20.16 24.23 20.26 18.97 16.26 15.84 20.60 23.84 22.13 24.89 25.57 24.91 24.66 23.30 23.41 25.35 28.55 31.46 30.38 29.74 28.65 28.43 29.55 29.96 30.75 30.28 28.06 27.85 27.47 27.77 27.29 27.01 26.41 24.76 23.02 23.26 22.75 24.58 24.41 23.25 22.62 22.12 20.80 20.28 19.17 18.94 18.03 17.56 18.45 19.23 18.50 18.41 17.81 16.45
24.12 23.18 20.07 19.69 18.06 22.27 24.84 27.24 27.16 26.02 25.19 24.35 25.18 22.30 21.73 24.31 27.76 29.92 29.24 29.67 29.67 29.49 29.11 28.35 28.60 29.57 28.20 26.92 25.78 26.42 25.69 26.43 24.45 22.53 21.93 24.53 23.82 23.28 22.29 21.00 20.75 20.26 19.11 17.73 16.87 16.44 15.51 15.08 16.05 16.10 15.14 14.22 13.79 12.95
22.35 19.83 18.56 15.94 18.16 24.30 26.02 23.68 23.07 22.14 22.94 22.19 21.56 23.90 23.45 22.67 20.33 25.47 29.84 30.07 28.15 27.15 27.62 28.68 27.73 27.85 30.00 30.08 27.03 23.91 23.56 22.60 20.50 20.07 20.01 21.45 21.16 19.15 17.78 17.04 16.22 17.12 16.39 15.19 15.47 15.00 14.13 13.14 13.38 13.19 12.27 11.69 10.97 10.31
20.72 20.93 20.55 19.59 18.92 18.67 22.51 21.44 19.65 18.77 20.33 19.04 19.57 20.99 21.54 20.39 17.36 24.93 31.40 31.83 29.28 28.31 28.06 29.17 30.26 29.28 28.71 26.33 24.53 21.30 18.41 13.59 10.70 10.81 10.08 10.07 10.08 13.98 16.35 16.20 15.64 14.43 13.64 14.00 14.11 13.60 12.22 10.82 10.89 10.22 10.36 8.33 7.21 6.22
MSLP
1019.86 1020.32 1020.61 1020.72 1020.87 1021.37 1021.80 1021.99 1022.31 1022.69 1022.70 1022.88 1023.45 1023.68 1024.08 1024.41 1024.69 1025.14 1024.84 1025.18 1025.27 1025.43 1024.76 1024.27 1023.65 1023.10 1022.73 1022.89 1023.53 1024.38 1024.61 1024.57 1025.46 1025.35 1024.44 1023.11 1021.95 1020.97 1019.83 1019.00 1018.37 1018.15 1018.16 1018.08 1017.91 1017.38 1016.32 1016.02 1015.12 1014.64 1014.55 1014.10 1014.13 1014.47
1019.87 1020.25 1020.48 1020.60 1020.92 1021.27 1021.56 1021.97 1022.21 1022.45 1022.67 1022.91 1023.38 1023.72 1023.99 1024.27 1024.57 1025.04 1025.11 1025.07 1025.36 1025.81 1025.35 1024.93 1024.30 1023.74 1023.49 1023.49 1023.85 1023.80 1024.14 1024.00 1024.63 1024.77 1024.15 1023.44 1022.46 1021.60 1020.44 1019.23 1018.41 1017.68 1017.44 1017.26 1017.35 1016.22 1015.42 1015.06 1014.55 1014.07 1013.71 1013.70 1013.87 1014.11
1020.03 1020.22 1020.48 1020.83 1021.21 1021.19 1021.52 1021.86 1022.15 1022.37 1022.68 1023.00 1023.27 1023.45 1023.72 1024.08 1024.42 1024.89 1024.93 1025.18 1025.61 1025.78 1025.02 1024.11 1023.30 1023.01 1023.28 1023.19 1023.40 1023.97 1023.71 1023.82 1023.94 1023.89 1024.07 1023.77 1022.91 1021.76 1020.55 1019.24 1018.24 1017.34 1016.66 1016.31 1016.28 1015.53 1014.81 1014.35 1013.86 1013.55 1013.84 1013.87 1013.62 1013.82
1020.09 1020.48 1020.63 1020.76 1021.14 1021.26 1021.56 1021.72 1022.04 1022.47 1022.77 1023.04 1023.31 1023.41 1023.66 1023.94 1024.21 1024.80 1024.86 1025.06 1025.32 1025.24 1024.69 1022.65 1021.67 1021.78 1021.90 1022.19 1022.45 1022.88 1023.28 1023.58 1023.97 1023.80 1023.99 1023.71 1023.02 1021.96 1020.60 1019.55 1018.42 1017.75 1017.11 1016.23 1015.37 1014.75 1014.40 1013.82 1014.11 1015.12 1013.67 1013.62 1013.77 1014.09
1020.55 1020.62 1020.74 1021.12 1021.34 1021.51 1021.68 1022.03 1022.38 1022.61 1022.98 1023.14 1023.43 1023.72 1023.86 1024.23 1024.42 1024.77 1024.58 1024.84 1025.03 1025.36 1024.40 1023.15 1022.19 1021.58 1021.48 1021.55 1022.05 1022.22 1022.94 1023.42 1024.01 1024.12 1023.71 1023.22 1022.56 1022.03 1020.76 1019.81 1017.66 1017.74 1016.73 1015.93 1014.77 1014.45 1013.79 1013.53 1013.79 1013.27 1013.10 1013.52 1014.05 1014.34
1020.69 1020.98 1021.15 1021.46 1021.63 1022.02 1021.98 1022.40 1022.59 1022.69 1023.15 1023.32 1023.63 1023.75 1024.03 1024.15 1024.42 1024.51 1025.06 1024.11 1024.44 1024.89 1025.20 1023.58 1021.62 1020.84 1020.62 1020.97 1021.39 1021.70 1022.42 1023.14 1023.55 1023.73 1023.27 1022.59 1022.42 1022.16 1020.44 1017.83 1016.62 1016.16 1015.52 1014.71 1014.15 1013.61 1013.24 1012.83 1012.88 1012.74 1013.22 1013.77 1014.23 1014.67
1020.73 1021.29 1021.68 1021.77 1021.99 1022.25 1022.38 1022.64 1023.05 1023.04 1023.35 1023.48 1023.62 1023.83 1024.13 1024.39 1024.31 1024.69 1024.54 1024.66 1024.20 1025.36 1025.49 1023.70 1021.48 1020.50 1020.55 1021.15 1021.39 1021.88 1022.60 1023.14 1023.42 1023.21 1022.45 1022.10 1021.57 1021.20 1019.77 1017.53 1014.76 1015.77 1014.95 1014.21 1013.90 1013.40 1012.62 1012.39 1012.52 1013.11 1013.68 1013.97 1014.28 1014.47
1020.99 1021.30 1021.72 1022.00 1022.18 1022.34 1022.65 1022.94 1023.05 1023.27 1023.53 1023.68 1023.83 1024.00 1024.15 1024.37 1024.63 1024.37 1024.15 1024.67 1024.69 1024.93 1024.69 1023.51 1021.43 1020.79 1020.84 1021.28 1022.03 1022.33 1022.72 1022.94 1022.66 1022.09 1021.43 1020.82 1020.34 1019.88 1017.77 1015.29 1015.03 1014.15 1013.15 1012.64 1012.65 1012.35 1011.96 1012.20 1012.84 1013.21 1013.55 1013.84 1014.07 1014.23
1021.19 1021.53 1021.70 1021.93 1022.28 1022.57 1022.78 1022.99 1023.23 1023.47 1023.68 1023.83 1024.01 1024.11 1024.03 1024.16 1024.11 1023.35 1023.21 1024.15 1024.39 1024.68 1023.89 1022.66 1021.29 1020.21 1020.63 1020.81 1021.66 1022.45 1022.47 1022.14 1021.42 1020.91 1020.48 1020.11 1018.74 1016.60 1014.69 1014.39 1013.62 1012.71 1011.96 1011.71 1011.48 1011.21 1011.28 1012.07 1012.79 1013.30 1013.69 1014.08 1014.60 1015.01
1021.40 1021.71 1021.89 1022.03 1022.31 1022.57 1022.90 1023.19 1023.37 1023.52 1023.62 1023.79 1024.02 1023.69 1023.79 1023.08 1023.45 1023.48 1024.31 1024.29 1024.41 1024.22 1023.88 1022.05 1020.55 1019.95 1020.05 1019.87 1020.48 1021.20 1021.22 1020.56 1019.15 1018.33 1018.01 1017.59 1015.88 1014.36 1013.73 1012.87 1012.49 1012.10 1011.77 1011.31 1011.07 1010.95 1011.20 1012.08 1013.01 1013.51 1014.06 1014.61 1015.26 1015.71
1021.62 1021.86 1022.00 1022.26 1022.48 1022.59 1022.85 1023.17 1023.37 1023.53 1023.74 1023.51 1023.19 1022.75 1023.03 1023.40 1023.37 1023.00 1023.16 1023.24 1022.59 1022.15 1021.34 1020.13 1019.74 1019.10 1019.18 1019.19 1019.41 1019.55 1019.01 1018.46 1017.07 1015.71 1015.73 1014.39 1012.84 1012.27 1011.46 1011.04 1011.11 1010.98 1010.88 1010.33 1010.33 1010.98 1011.75 1012.63 1013.30 1014.00 1014.56 1015.09 1015.62 1015.82
1021.75 1021.96 1022.10 1022.35 1022.41 1022.52 1022.85 1023.05 1023.30 1023.41 1023.02 1023.23 1023.02 1022.88 1023.06 1023.05 1022.81 1022.51 1021.50 1020.86 1020.14 1019.00 1018.15 1018.15 1017.96 1018.05 1018.49 1018.85 1018.92 1018.90 1018.24 1017.54 1015.64 1014.51 1014.51 1012.63 1011.44 1010.67 1010.16 1010.08 1010.54 1010.55 1010.48 1010.39 1010.95 1011.78 1012.65 1013.58 1014.25 1014.81 1015.28 1015.63 1015.81 1015.98
1021.93 1022.15 1022.18 1022.42 1022.45 1022.54 1022.72 1023.05 1023.20 1023.45 1023.46 1022.97 1022.99 1022.63 1022.41 1021.96 1021.48 1020.38 1019.65 1018.77 1018.20 1017.42 1016.80 1016.91 1017.22 1017.61 1017.92 1018.48 1018.72 1018.35 1017.66 1016.18 1014.98 1013.83 1012.83 1011.53 1010.74 1009.98 1009.57 1010.54 1010.67 1010.84 1011.28 1011.63 1012.22 1012.89 1013.58 1014.22 1014.82 1015.33 1015.68 1016.05 1016.28 1016.43
1022.06 1022.28 1022.30 1022.43 1022.45 1022.56 1022.74 1023.14 1023.36 1023.53 1023.54 1022.85 1022.47 1022.02 1021.31 1020.31 1019.43 1018.26 1017.86 1017.34 1017.49 1017.73 1017.48 1017.75 1017.73 1017.73 1017.60 1018.10 1018.02 1017.75 1016.46 1015.48 1014.18 1013.05 1011.73 1011.10 1010.81 1010.57 1010.80 1011.27 1011.63 1011.71 1012.26 1012.76 1013.16 1013.66 1014.18 1014.94 1015.41 1015.77 1016.23 1016.49 1016.51 1016.53
1022.03 1022.21 1022.45 1022.68 1022.66 1022.69 1022.89 1023.22 1023.49 1023.56 1023.32 1022.79 1021.83 1020.44 1019.51 1018.81 1018.07 1018.02 1017.86 1017.60 1017.38 1017.44 1017.61 1017.76 1017.92 1017.96 1017.33 1017.32 1016.88 1016.44 1015.48 1014.42 1013.34 1012.23 1011.75 1012.10 1012.14 1012.08 1012.29 1012.48 1012.69 1013.22 1013.62 1014.01 1014.46 1015.21 1015.61 1015.84 1016.08 1016.33 1016.55 1016.62 1016.56 1016.58
1022.00 1022.32 1022.27 1022.58 1022.86 1023.06 1023.09 1023.20 1023.33 1023.62 1023.49 1022.54 1021.18 1019.81 1018.93 1018.56 1018.20 1018.01 1017.82 1017.67 1017.66 1017.85 1018.03 1017.91 1017.63 1017.11 1016.51 1016.11 1015.55 1014.86 1014.34 1013.91 1014.02 1014.32 1014.11 1013.72 1013.05 1012.75 1012.97 1013.31 1013.42 1013.76 1014.28 1014.73 1014.96 1015.47 1015.80 1016.02 1016.20 1016.33 1016.42 1016.34 1016.15 1016.04
1022.12 1021.87 1022.37 1022.74 1023.11 1023.05 1023.22 1023.01 1022.95 1023.06 1022.32 1020.95 1019.84 1019.31 1018.97 1018.66 1018.38 1018.25 1018.11 1018.26 1018.41 1018.41 1018.17 1018.01 1017.50 1016.57 1015.95 1014.80 1014.37 1014.09 1014.41 1015.21 1015.30 1015.19 1015.38 1015.27 1014.59 1014.16 1013.63 1013.54 1013.85 1014.09 1014.43 1014.79 1015.01 1015.24 1015.48 1015.80 1016.03 1016.01 1015.89 1015.59 1015.55 1015.45
1021.89 1022.17 1022.38 1022.71 1022.90 1022.72 1022.77 1022.87 1022.43 1021.73 1020.86 1019.91 1019.29 1018.75 1018.58 1018.35 1018.18 1017.96 1017.97 1018.21 1018.80 1018.54 1018.12 1017.90 1017.46 1016.58 1016.07 1015.01 1014.54 1014.54 1015.20 1015.52 1015.45 1015.51 1015.50 1015.27 1015.14 1015.23 1015.02 1014.71 1014.32 1014.32 1014.31 1014.41 1014.55 1014.82 1015.13 1015.39 1015.43 1015.10 1014.90 1014.85 1014.93 1014.78
1022.51 1022.37 1022.53 1022.77 1022.84 1022.79 1022.45 1022.06 1021.78 1020.75 1019.50 1019.10 1018.71 1018.28 1017.97 1017.64 1017.50 1017.62 1017.75 1018.08 1018.41 1018.22 1018.03 1017.46 1016.85 1016.01 1015.51 1015.37 1015.41 1015.68 1015.64 1015.69 1015.84 1015.92 1015.67 1015.14 1014.83 1014.47 1014.18 1014.08 1014.19 1014.18 1014.08 1014.22 1014.52 1014.62 1014.56 1014.40 1014.50 1014.51 1014.56 1014.57 1014.52 1014.40
1022.25 1022.54 1022.67 1022.88 1022.96 1022.84 1022.44 1021.30 1020.64 1019.85 1018.73 1018.20 1017.93 1017.70 1017.29 1017.11 1017.13 1017.16 1017.22 1017.35 1017.38 1017.26 1016.96 1016.44 1016.04 1015.78 1015.67 1015.63 1015.73 1015.59 1015.35 1015.33 1015.28 1014.87 1014.44 1014.25 1014.08 1013.84 1013.65 1013.52 1013.34 1013.23 1013.18 1013.28 1013.59 1013.98 1014.18 1014.15 1014.11 1014.18 1014.17 1014.26 1014.45 1014.36
1022.14 1021.87 1022.20 1022.57 1022.62 1022.74 1022.06 1020.61 1019.79 1018.98 1018.42 1017.91 1017.58 1017.28 1016.98 1016.80 1016.64 1016.56 1016.48 1016.64 1016.63 1016.33 1015.83 1015.60 1015.57 1015.48 1015.55 1015.58 1015.59 1015.45 1015.24 1015.15 1014.78 1014.58 1014.10 1013.63 1013.54 1013.44 1013.29 1013.24 1013.05 1012.77 1012.63 1012.57 1012.80 1013.19 1013.51 1013.65 1013.77 1013.97 1014.18 1014.29 1014.42 1014.37
1021.56 1021.76 1021.61 1021.91 1022.24 1021.97 1021.26 1020.28 1019.49 1018.87 1018.57 1018.04 1017.76 1017.50 1017.24 1016.94 1016.51 1016.28 1016.19 1016.15 1015.77 1015.37 1015.47 1015.31 1015.28 1015.29 1015.17 1015.08 1015.11 1015.34 1015.27 1015.07 1014.71 1014.32 1013.93 1013.51 1012.92 1012.73 1012.58 1012.49 1012.41 1012.27 1012.18 1012.19 1012.38 1012.85 1013.18 1013.51 1013.81 1014.06 1014.27 1014.43 1014.48 1014.38
1021.79 1021.80 1021.71 1021.58 1021.74 1021.17 1020.17 1019.32 1019.03 1018.71 1018.41 1018.17 1017.97 1017.58 1017.21 1016.67 1016.25 1015.99 1015.56 1015.03 1014.81 1014.73 1014.77 1014.71 1014.67 1014.68 1014.69 1014.77 1014.74 1014.69 1014.73 1014.26 1013.65 1013.32 1012.94 1012.54 1012.26 1012.09 1012.00 1011.88 1011.91 1011.96 1012.07 1012.20 1012.46 1012.82 1013.18 1013.78 1014.00 1014.31 1014.49 1014.61 1014.46 1014.26
1021.59 1021.52 1021.33 1020.98 1020.69 1020.02 1019.36 1018.90 1018.62 1018.35 1017.98 1017.70 1017.41 1016.92 1016.46 1015.99 1015.82 1015.45 1014.85 1014.41 1014.23 1014.12 1014.05 1014.19 1014.44 1014.44 1014.48 1014.55 1014.46 1014.31 1014.08 1013.63 1012.97 1012.43 1012.16 1011.98 1011.72 1011.54 1011.58 1011.54 1011.82 1012.19 1012.54 1012.83 1013.04 1013.18 1013.46 1013.94 1014.34 1014.52 1014.59 1014.58 1014.46 1014.37
1021.06 1021.12 1020.90 1020.20 1019.80 1019.19 1018.81 1018.44 1018.21 1017.89 1017.59 1017.52 1017.25 1016.90 1016.42 1015.95 1015.45 1014.92 1014.32 1014.11 1013.96 1013.87 1013.94 1014.05 1014.10 1014.35 1014.49 1014.41 1014.17 1013.96 1013.68 1013.37 1013.02 1012.43 1011.93 1011.70 1011.61 1011.48 1011.62 1011.94 1012.19 1012.56 1012.97 1013.35 1013.62 1013.80 1013.91 1014.21 1014.51 1014.65 1014.66 1014.69 1014.62 1014.50
1019.42 1019.32 1019.36 1018.69 1018.29 1018.16 1017.85 1017.55 1017.37 1017.21 1016.78 1016.67 1016.55 1016.24 1016.00 1015.71 1015.29 1014.48 1013.91 1013.57 1013.47 1013.50 1013.57 1013.80 1014.30 1014.42 1014.20 1014.15 1013.91 1013.74 1013.72 1013.77 1013.58 1013.05 1012.32 1011.88 1011.73 1011.66 1011.72 1012.03 1012.42 1012.85 1013.19 1013.57 1013.85 1014.05 1014.22 1014.40 1014.63 1014.80 1014.85 1014.75 1014.66 1014.57
1018.17 1017.81 1017.36 1017.22 1017.11 1016.96 1016.71 1016.49 1016.40 1016.40 1016.11 1015.84 1015.65 1015.57 1015.39 1014.84 1014.05 1013.47 1013.07 1012.91 1013.02 1013.23 1013.74 1014.39 1014.21 1014.07 1013.96 1013.88 1013.90 1013.99 1014.10 1014.12 1014.11 1013.89 1013.32 1012.85 1012.69 1012.61 1012.63 1012.69 1012.76 1013.34 1013.68 1014.10 1014.42 1014.63 1014.72 1014.81 1014.93 1014.99 1014.98 1014.91 1014.74 1014.57
1016.68 1016.25 1016.09 1016.38 1016.27 1016.09 1015.82 1015.77 1015.74 1015.58 1015.33 1015.13 1014.99 1014.80 1014.68 1014.05 1013.43 1013.22 1013.06 1013.10 1013.16 1013.31 1013.44 1013.52 1013.60 1013.53 1013.42 1013.51 1013.78 1013.99 1013.97 1014.14 1014.21 1014.14 1013.81 1013.49 1013.38 1013.46 1013.59 1013.93 1014.45 1014.38 1014.46 1014.87 1014.97 1015.09 1015.19 1015.27 1015.30 1015.31 1015.24 1015.07 1014.96 1014.74
1015.79 1015.56 1015.43 1015.11 1015.15 1015.28 1015.22 1014.93 1014.48 1014.26 1014.27 1014.36 1014.00 1013.61 1013.39 1013.26 1013.16 1012.93 1012.81 1012.81 1012.91 1013.03 1013.02 1013.08 1013.13 1013.22 1013.23 1013.37 1013.60 1013.85 1013.84 1013.86 1013.89 1013.69 1013.50 1013.26 1013.22 1013.50 1013.77 1014.12 1014.59 1014.80 1014.98 1015.10 1015.56 1015.60 1015.62 1015.72 1015.73 1015.68 1015.52 1015.27 1014.88 1014.41
1013.98 1014.33 1014.27 1014.26 1014.36 1014.01 1013.68 1013.86 1013.56 1013.53 1013.54 1013.42 1013.27 1013.09 1012.85 1012.57 1012.41 1012.40 1012.34 1012.37 1012.40 1012.44 1012.52 1012.55 1012.63 1012.77 1012.75 1012.75 1012.79 1012.99 1013.41 1013.63 1013.75 1013.80 1013.67 1013.45 1013.63 1013.95 1014.10 1014.39 1014.70 1015.03 1015.37 1015.37 1015.38 1015.43 1015.50 1015.51 1015.39 1015.10 1015.07 1014.93 1014.78 1014.68
1012.85 1013.09 1013.19 1013.24 1012.94 1012.77 1012.66 1012.70 1012.77 1012.72 1012.66 1012.48 1012.36 1012.31 1011.83 1011.54 1011.32 1011.39 1011.51 1011.55 1011.66 1011.73 1011.83 1011.86 1011.95 1012.04 1012.12 1012.24 1012.58 1012.61 1012.74 1013.16 1013.67 1014.16 1014.40 1014.21 1014.34 1014.53 1014.77 1015.09 1015.28 1015.46 1015.59 1015.70 1015.73 1015.71 1015.73 1015.70 1015.52 1015.32 1015.32 1015.34 1015.29 1015.25
1012.13 1012.19 1012.32 1012.30 1012.10 1012.02 1012.15 1012.07 1011.96 1011.81 1011.54 1011.38 1011.00 1010.94 1010.82 1010.71 1010.31 1010.08 1010.21 1010.54 1010.65 1010.71 1010.79 1010.98 1011.10 1011.18 1011.51 1011.88 1012.47 1012.99 1013.20 1013.63 1014.23 1014.55 1014.63 1014.66 1014.91 1015.35 1015.67 1015.88 1016.05 1015.98 1015.94 1015.97 1015.92 1015.99 1016.06 1016.07 1015.96 1015.88 1015.91 1015.87 1015.93 1015.88
1011.60 1011.63 1011.62 1011.72 1011.62 1011.47 1011.44 1011.56 1011.23 1010.79 1010.45 1010.06 1009.70 1009.69 1009.56 1009.54 1009.16 1009.20 1009.25 1009.72 1010.06 1010.26 1010.43 1010.60 1010.79 1011.12 1011.44 1012.06 1012.61 1013.43 1014.03 1014.83 1015.28 1015.62 1015.79 1015.90 1016.03 1016.09 1016.12 1016.26 1016.36 1016.37 1016.31 1016.24 1016.30 1016.41 1016.49 1016.57 1016.50 1016.59 1016.56 1016.74 1016.78 1016.73
Wind_Speed
10 8 8 8 7 10 12 10 8 7 6 11 10 8 8 10 13 8 2 6 3 3 7 11 12 10 8 3 4 2 3 4 2 4 4 4 5 6 8 12 13 9 8 8 6 6 8 11 17 11 11 11 8 12
10 9 9 8 9 10 12 11 7 8 8 9 8 7 7 7 13 12 2 4 4 3 4 5 11 13 13 12 6 5 5 5 5 4 4 4 6 5 11 11 13 11 9 8 6 8 18 17 16 12 12 14 7 10
9 9 8 8 8 9 8 8 8 9 8 7 6 8 9 9 12 12 4 2 2 1 6 7 10 15 16 14 10 4 5 8 11 8 4 4 8 8 9 10 15 15 15 11 13 16 16 16 16 13 5 11 13 12
11 10 9 9 8 9 8 7 9 9 9 8 7 7 8 8 10 12 5 4 2 2 4 3 3 5 12 11 13 15 12 11 8 7 4 6 7 8 10 15 15 12 16 16 18 17 18 15 7 11 11 14 14 10
12 11 11 10 9 8 8 8 8 8 8 8 7 5 4 6 7 6 5 4 4 3 4 6 13 17 13 9 12 14 13 12 5 3 5 8 9 10 11 15 17 14 17 12 13 17 16 10 14 14 12 9 9 12
11 11 11 11 11 10 11 9 9 8 7 7 6 5 3 4 10 3 3 6 8 6 3 4 5 8 5 7 14 11 8 8 7 4 5 8 15 12 8 11 17 16 16 15 14 17 17 14 14 15 8 7 8 12
13 11 10 10 10 9 9 9 9 9 8 6 4 4 5 6 5 3 0 3 6 6 2 4 5 2 3 5 2 4 8 2 5 5 7 10 10 7 8 18 26 20 21 20 18 18 15 14 9 6 6 9 8 10
12 11 10 10 9 8 8 7 7 7 6 5 5 5 3 4 5 4 6 3 6 3 3 4 5 6 8 4 3 3 2 3 5 5 5 9 9 10 12 20 19 19 18 16 18 19 16 1 2 6 6 6 9 9
10 9 9 9 7 7 8 8 8 6 4 4 3 1 4 4 3 4 10 11 5 5 3 5 4 2 7 5 3 4 4 5 4 6 8 7 8 11 14 17 19 18 12 12 14 15 8 7 5 5 7 6 7 8
9 8 7 8 7 7 9 7 6 5 4 6 6 4 3 4 18 11 3 3 3 3 4 6 7 6 7 6 6 5 6 6 6 10 6 9 16 19 21 21 18 18 20 18 15 12 6 2 3 4 5 4 4 6
9 7 6 5 3 7 11 8 6 6 4 4 4 3 5 9 4 3 5 6 7 6 7 9 14 12 7 9 7 4 3 4 5 5 8 6 9 13 21 23 20 16 15 14 15 3 3 2 0 2 3 4 5 7
9 7 5 3 1 10 8 10 8 6 1 2 2 1 3 3 4 5 5 5 7 6 7 9 8 9 7 7 6 5 5 4 7 3 4 5 8 14 13 5 4 3 4 4 7 4 5 2 2 2 3 4 5 7
7 5 3 2 2 5 7 11 8 4 3 3 2 3 4 5 8 7 8 5 5 5 5 6 4 4 3 4 4 3 6 7 5 5 6 9 9 11 7 7 5 6 4 7 6 5 3 2 1 2 3 4 5 6
7 5 4 4 5 5 8 9 4 4 3 3 6 6 7 6 7 8 11 8 2 2 6 2 4 5 4 6 4 5 7 5 7 6 11 6 7 10 8 5 4 6 5 4 3 2 3 2 2 4 4 3 4 6
6 5 3 5 5 7 8 8 5 3 3 5 5 6 8 8 7 4 5 5 6 5 4 2 3 3 3 5 6 7 5 6 6 8 6 3 6 9 6 4 5 6 4 4 4 2 1 1 2 4 4 6 7 7
6 4 4 9 8 6 4 5 5 3 2 4 6 5 6 6 7 6 7 7 6 4 3 4 4 5 7 5 6 7 5 4 6 6 6 6 3 7 7 3 1 3 2 1 2 4 4 5 5 6 7 6 6 6
5 3 8 8 6 3 1 3 3 5 5 6 5 8 10 10 10 8 6 5 6 3 3 3 5 5 5 6 10 4 3 4 6 5 4 11 10 11 7 2 4 3 4 5 3 4 4 4 5 6 8 8 6 5
3 9 11 7 3 4 4 4 4 5 8 7 9 8 9 9 9 9 8 6 3 3 2 4 4 5 5 6 6 6 4 5 3 3 4 3 2 2 8 14 9 5 7 6 7 5 4 4 7 7 8 4 4 5
7 6 7 4 2 2 3 4 5 5 7 9 9 9 10 9 8 9 7 6 7 7 4 4 6 6 9 7 8 9 8 6 6 5 7 10 8 7 7 9 9 7 6 4 5 6 6 6 3 4 5 5 6 5
3 2 3 2 2 1 4 5 5 6 6 6 8 10 10 8 7 7 7 7 8 8 9 8 11 10 9 8 7 8 9 9 9 10 10 7 6 7 8 8 7 8 8 7 7 8 5 5 5 5 4 3 5 6
7 8 10 8 4 5 5 4 5 6 6 7 8 9 8 8 8 9 9 8 10 11 12 9 9 8 8 7 7 8 9 10 10 9 11 11 8 7 8 9 10 8 8 8 6 4 5 4 3 3 3 4 4 6
2 3 3 7 4 4 5 7 8 9 9 10 11 10 10 9 9 9 7 8 9 10 9 9 8 8 9 10 6 9 11 15 15 12 15 13 10 8 8 7 7 7 7 5 3 3 2 1 1 3 3 5 6 6
1 3 3 4 5 5 6 7 13 13 14 14 12 15 12 11 10 10 8 8 9 8 7 8 8 7 8 7 9 10 12 16 13 11 11 10 9 9 9 8 6 4 4 3 3 3 1 3 1 2 4 5 6 6
2 3 3 4 7 5 5 6 9 11 11 13 14 20 18 12 10 11 13 11 9 8 8 6 6 8 7 8 8 9 11 10 11 10 9 9 9 9 8 4 1 2 1 2 1 1 2 1 2 4 4 5 6 6
6 8 5 6 5 7 7 9 12 12 15 15 17 14 5 6 7 11 13 9 8 7 6 6 6 4 5 8 8 9 11 8 8 10 8 7 8 4 4 3 2 2 2 1 2 3 2 1 3 4 5 5 7 8
7 9 10 8 6 9 9 15 14 14 12 15 15 11 11 12 16 11 10 8 7 6 5 3 3 5 7 7 8 9 9 6 8 8 9 7 4 4 4 5 4 5 4 1 2 3 4 3 4 5 6 7 6 8
9 10 8 9 10 9 10 10 11 11 12 7 7 11 9 8 8 7 6 6 6 3 5 3 4 6 7 7 7 7 4 5 4 5 6 5 5 5 5 4 3 5 4 3 1 2 3 4 4 5 5 6 6 7
9 8 15 11 11 10 15 13 15 16 15 12 12 18 14 9 11 9 8 4 4 3 4 5 5 5 6 6 5 6 5 3 4 5 3 2 2 3 4 5 5 7 5 4 2 1 2 3 4 5 6 7 6 6
7 8 9 11 12 11 14 17 17 13 12 12 15 15 15 11 9 8 7 6 5 6 6 5 5 5 4 4 5 6 5 4 6 9 9 6 4 4 3 4 3 1 2 1 3 1 3 3 4 5 6 6 7 7
13 10 13 15 16 18 15 11 13 11 10 11 10 12 12 11 9 6 6 6 7 7 7 6 5 5 7 6 7 7 6 4 4 5 5 4 4 3 3 2 2 2 1 2 2 2 3 3 5 5 4 4 5 6
10 10 14 14 16 14 13 10 10 11 12 13 12 13 14 13 11 9 9 9 8 7 7 8 8 7 7 6 7 8 5 6 4 1 2 1 2 2 3 3 3 1 0 1 2 2 3 4 4 5 6 7 8 8
11 14 12 15 14 11 9 10 11 12 12 13 14 12 13 12 16 10 7 7 10 10 10 9 8 7 4 3 4 5 8 6 5 2 1 1 3 4 3 2 1 0 1 1 1 2 3 4 4 5 6 8 9 9
10 10 11 10 10 12 8 8 7 9 10 12 13 12 13 13 18 8 1 1 3 6 5 3 2 2 4 7 7 7 9 8 11 9 9 10 9 4 2 2 2 2 1 2 2 2 3 5 5 6 7 8 9 9
Wind_Direction
176 188 194 187 186 180 191 186 193 198 196 156 155 165 190 195 197 208 200 197 198 205 271 277 281 280 262 252 189 125 341 189 143 229 261 272 269 277 287 270 277 257 254 256 255 243 257 6 317 343 326 326 13 307
173 172 162 153 167 188 177 184 192 187 162 152 164 177 180 180 194 195 248 184 219 236 274 332 289 292 288 283 274 208 224 167 192 240 258 290 276 290 283 278 283 276 275 276 243 283 315 311 288 304 337 331 327 326
159 154 155 158 162 158 166 188 196 179 164 162 175 196 196 193 188 190 213 155 119 347 268 239 248 247 244 253 258 214 227 239 254 266 297 271 261 288 276 275 285 287 284 276 268 271 277 297 301 327 329 285 342 354
135 146 145 138 133 135 138 134 143 161 153 144 128 120 134 145 169 189 215 177 239 254 276 300 288 242 214 226 229 242 266 256 281 247 252 247 255 263 269 281 278 287 297 289 286 296 296 299 2 269 320 333 331 350
126 117 112 112 120 135 133 128 133 143 151 149 144 145 166 185 173 208 240 229 236 249 303 301 304 279 250 217 232 230 213 237 212 238 227 252 254 265 267 269 263 269 271 267 273 275 283 268 267 307 320 338 333 328
133 125 117 112 106 102 105 113 118 127 145 157 163 162 159 186 184 201 358 231 208 204 286 288 340 281 216 267 203 221 207 225 230 227 249 251 258 270 270 264 264 270 279 279 282 272 259 287 294 300 0 352 331 320
133 135 134 124 119 115 111 109 111 110 114 111 148 174 186 178 204 180 347 40 52 80 207 266 252 115 199 183 243 202 233 153 232 226 229 247 256 261 260 263 270 275 275 273 266 273 286 280 303 23 337 329 309 285
148 141 137 133 125 128 132 129 124 122 117 121 116 123 126 186 262 286 223 188 157 197 239 253 263 188 174 165 190 201 219 213 219 237 256 253 241 230 248 253 266 268 265 255 249 257 263 21 326 317 307 297 297 325
137 137 144 152 145 140 137 130 131 124 140 160 159 193 182 207 208 219 164 152 221 246 250 219 233 268 158 196 144 180 193 229 221 220 223 222 228 226 242 254 255 262 272 263 261 265 270 194 243 322 304 328 326 323
140 138 135 168 168 178 162 153 153 152 126 167 204 184 215 200 115 113 93 180 199 207 218 253 237 232 196 194 193 206 181 222 227 207 207 219 244 253 261 258 264 273 276 278 278 281 279 302 276 289 284 327 317 322
139 140 135 135 129 175 172 167 161 167 191 201 194 225 84 153 183 219 198 207 181 214 209 225 226 240 233 253 258 230 249 227 236 210 205 220 247 236 238 236 239 251 259 273 241 247 63 90 181 295 300 313 312 289
126 125 135 117 188 180 182 180 179 212 79 46 334 238 142 210 209 230 214 208 217 231 182 211 219 208 222 224 224 229 242 241 258 246 213 247 251 260 290 153 190 218 307 97 79 114 112 107 44 330 326 300 300 334
125 115 129 106 145 170 190 183 189 84 268 217 230 214 205 205 231 224 193 207 219 227 216 199 186 187 164 159 213 241 239 243 269 229 250 257 258 261 224 146 168 125 116 114 111 102 95 133 160 238 288 323 327 314
132 118 109 132 139 126 163 169 151 177 255 232 194 219 227 197 230 228 240 244 264 319 299 320 238 203 186 183 214 231 232 248 242 246 250 248 356 40 67 116 213 133 129 128 138 129 81 42 339 7 44 349 302 290
136 125 140 137 122 116 142 170 183 210 255 238 225 228 218 248 264 272 293 300 309 356 323 234 221 232 206 216 201 226 245 238 238 255 286 57 69 59 45 33 66 54 44 64 98 95 219 264 300 292 300 302 302 298
170 222 168 137 138 125 133 183 188 170 253 248 244 250 273 265 259 274 290 296 304 296 301 254 251 246 226 229 224 216 240 256 9 9 1 355 76 124 140 171 159 145 174 212 240 198 231 246 252 276 286 265 260 265
213 141 141 132 135 152 275 272 169 191 234 234 229 244 258 268 273 275 289 305 339 300 238 229 260 239 309 245 235 247 339 25 354 355 2 334 340 356 6 58 123 149 174 231 238 205 215 240 258 272 270 266 247 258
199 137 135 133 225 205 221 213 245 237 238 242 256 259 261 267 272 272 274 293 239 248 239 244 315 243 268 289 298 323 28 337 297 294 308 332 317 309 350 338 334 300 249 224 220 208 209 228 251 253 253 252 258 280
71 115 116 104 3 312 261 222 214 255 245 252 265 265 263 263 254 253 256 212 216 250 260 240 245 250 263 273 315 335 325 326 314 280 261 268 271 280 226 235 265 271 262 240 227 248 255 243 263 292 293 287 283 294
261 192 191 175 264 263 257 254 218 256 266 272 268 266 266 264 272 276 261 252 258 250 237 240 252 264 280 302 314 310 313 315 308 298 289 290 290 281 272 267 264 251 252 229 213 224 235 253 244 258 282 314 310 304
216 235 201 210 220 221 268 263 249 268 278 275 270 281 278 275 252 254 257 253 249 251 258 256 268 277 283 289 302 297 298 304 300 304 306 301 293 284 284 279 276 276 276 268 250 220 206 235 264 281 284 300 304 296
221 135 264 185 231 238 244 239 260 270 277 272 280 285 280 278 283 280 284 278 264 261 260 265 267 275 280 287 312 313 299 291 285 283 282 279 280 279 279 277 274 275 276 262 237 236 214 183 350 314 329 307 307 302
268 210 225 216 216 239 257 247 256 261 266 270 274 278 276 276 279 287 276 264 253 259 252 255 264 275 280 286 292 304 300 284 276 270 270 269 269 272 272 266 267 278 284 265 215 189 205 81 310 299 305 300 292 299
126 216 217 224 216 244 230 248 265 274 277 276 279 278 270 268 273 271 271 269 270 265 268 284 293 283 293 304 298 302 307 295 285 272 267 269 271 271 275 263 147 80 25 16 350 359 22 324 320 288 297 300 300 306
200 191 212 216 237 228 232 253 268 278 276 276 277 276 279 307 292 281 275 284 288 285 280 278 278 285 308 301 298 303 305 298 301 301 299 301 296 260 177 169 147 114 131 169 230 231 256 298 290 283 300 310 311 311
206 195 198 213 218 241 246 257 262 269 268 273 268 270 278 280 280 275 277 285 284 273 269 267 297 286 291 300 306 310 315 328 319 301 297 281 262 269 234 197 181 191 172 183 268 256 269 293 293 305 303 307 311 307
210 206 209 225 249 260 260 270 282 288 283 269 264 275 277 258 247 249 268 274 277 346 59 308 260 284 295 304 310 314 331 330 311 321 333 12 32 29 23 21 60 87 116 119 119 279 297 310 308 311 316 313 312 325
218 219 228 234 246 248 255 260 262 261 260 264 261 260 251 262 275 288 293 313 313 242 227 241 262 276 282 277 293 297 281 256 279 280 269 246 40 49 57 65 46 34 75 44 21 352 315 315 320 318 314 320 323 315
209 230 236 238 241 246 253 257 256 255 262 266 267 266 270 268 284 291 294 291 298 284 268 265 277 283 286 262 254 265 269 262 255 257 262 281 205 179 146 125 126 67 19 75 134 324 330 326 315 306 301 297 291 295
233 231 241 244 250 250 250 251 264 272 270 272 278 279 273 271 268 266 278 272 263 266 270 273 271 274 276 286 279 240 210 234 278 286 307 349 49 76 109 134 152 116 332 310 325 330 268 285 286 270 281 324 339 344
232 233 240 246 255 256 258 266 264 259 258 259 259 261 265 272 274 262 254 250 251 250 253 251 250 251 257 258 272 264 223 180 161 105 321 314 64 43 58 52 49 40 343 316 325 318 355 323 324 334 351 345 351 347
241 240 245 253 259 266 268 266 268 266 267 263 262 257 256 256 256 258 243 240 247 244 240 239 245 255 263 231 112 83 67 92 112 125 169 150 92 76 97 92 126 4 31 349 356 340 358 350 340 5 345 355 354 349
241 248 242 246 257 266 269 286 276 272 268 270 268 260 256 257 261 259 238 28 271 275 274 297 320 55 103 128 123 106 84 73 71 69 60 52 45 35 99 87 71 59 43 16 35 12 26 14 10 2 8 6 358 352